QPF
0.00 0.00 0.00 0.00 0.00 0.00 0.01 0.01 0.01 0.01 0.01 0.01 0.00 0.00 0.00 0.00 0.00 0.00 0.00 0.01 0.01 0.01 0.00 0.01 0.01 0.01 0.01 0.01 0.00 0.00 0.00 0.01 0.03 0.07 0.06 0.03 0.02 0.02 0.02 0.03 0.04 0.08 0.11 0.12
0.00 0.00 0.00 0.00 0.00 0.00 0.01 0.01 0.01 0.01 0.01 0.01 0.01 0.00 0.00 0.00 0.00 0.00 0.00 0.00 0.01 0.01 0.00 0.01 0.01 0.01 0.01 0.00 0.00 0.00 0.00 0.00 0.01 0.03 0.05 0.03 0.03 0.03 0.03 0.04 0.05 0.07 0.10 0.12
0.00 0.00 0.00 0.00 0.00 0.01 0.01 0.01 0.01 0.01 0.01 0.01 0.01 0.00 0.00 0.00 0.00 0.00 0.00 0.00 0.01 0.01 0.00 0.01 0.01 0.01 0.01 0.01 0.00 0.00 0.00 0.00 0.01 0.03 0.05 0.06 0.08 0.09 0.06 0.04 0.05 0.06 0.09 0.12
0.00 0.00 0.00 0.00 0.00 0.00 0.00 0.00 0.01 0.01 0.01 0.01 0.02 0.02 0.00 0.00 0.00 0.00 0.00 0.00 0.00 0.01 0.00 0.00 0.01 0.01 0.01 0.01 0.00 0.00 0.01 0.01 0.01 0.03 0.05 0.07 0.06 0.06 0.05 0.06 0.06 0.07 0.09 0.13
0.00 0.00 0.00 0.00 0.00 0.00 0.00 0.00 0.01 0.01 0.01 0.01 0.01 0.01 0.01 0.00 0.00 0.00 0.00 0.00 0.00 0.01 0.00 0.00 0.00 0.01 0.01 0.01 0.01 0.01 0.01 0.01 0.01 0.03 0.04 0.06 0.06 0.04 0.04 0.08 0.08 0.08 0.09 0.12
0.00 0.00 0.00 0.00 0.00 0.00 0.00 0.00 0.01 0.01 0.02 0.02 0.00 0.00 0.00 0.00 0.00 0.00 0.00 0.00 0.00 0.00 0.00 0.00 0.00 0.00 0.01 0.01 0.01 0.02 0.02 0.04 0.03 0.04 0.05 0.06 0.07 0.07 0.05 0.05 0.09 0.10 0.09 0.11
0.00 0.00 0.00 0.00 0.00 0.00 0.00 0.01 0.03 0.02 0.02 0.01 0.00 0.00 0.00 0.00 0.00 0.00 0.00 0.00 0.00 0.00 0.00 0.00 0.00 0.00 0.01 0.02 0.02 0.03 0.04 0.06 0.05 0.04 0.04 0.05 0.06 0.07 0.06 0.06 0.06 0.10 0.11 0.11
0.01 0.00 0.00 0.00 0.01 0.01 0.01 0.01 0.02 0.02 0.01 0.00 0.00 0.00 0.00 0.00 0.00 0.00 0.00 0.00 0.00 0.00 0.00 0.00 0.00 0.00 0.00 0.02 0.02 0.02 0.02 0.04 0.07 0.06 0.05 0.04 0.04 0.05 0.05 0.07 0.05 0.07 0.09 0.10
0.01 0.01 0.00 0.00 0.00 0.01 0.02 0.02 0.02 0.03 0.02 0.01 0.00 0.00 0.00 0.00 0.00 0.00 0.00 0.00 0.00 0.00 0.00 0.00 0.00 0.00 0.00 0.01 0.01 0.02 0.03 0.05 0.08 0.10 0.07 0.05 0.04 0.04 0.04 0.05 0.07 0.08 0.08 0.08
0.01 0.01 0.00 0.00 0.01 0.01 0.01 0.02 0.03 0.04 0.03 0.01 0.00 0.00 0.00 0.00 0.00 0.00 0.00 0.00 0.00 0.00 0.01 0.01 0.00 0.00 0.00 0.01 0.01 0.02 0.02 0.04 0.05 0.07 0.08 0.06 0.06 0.05 0.04 0.04 0.04 0.06 0.08 0.09
0.02 0.02 0.01 0.01 0.01 0.02 0.02 0.02 0.03 0.03 0.03 0.02 0.01 0.00 0.00 0.01 0.01 0.01 0.01 0.00 0.00 0.00 0.01 0.01 0.02 0.01 0.00 0.01 0.01 0.01 0.02 0.03 0.03 0.04 0.04 0.06 0.07 0.05 0.04 0.04 0.04 0.04 0.05 0.07
0.02 0.03 0.02 0.01 0.01 0.01 0.02 0.02 0.02 0.03 0.02 0.01 0.02 0.01 0.00 0.01 0.01 0.01 0.01 0.00 0.00 0.00 0.00 0.00 0.01 0.00 0.00 0.00 0.01 0.02 0.02 0.02 0.03 0.04 0.05 0.05 0.06 0.07 0.05 0.04 0.03 0.03 0.03 0.05
0.03 0.05 0.04 0.02 0.02 0.01 0.02 0.03 0.02 0.02 0.03 0.02 0.02 0.01 0.01 0.01 0.01 0.01 0.01 0.00 0.01 0.01 0.01 0.01 0.00 0.00 0.01 0.01 0.01 0.02 0.02 0.02 0.02 0.03 0.04 0.06 0.07 0.08 0.06 0.04 0.04 0.04 0.04 0.04
0.04 0.06 0.04 0.02 0.02 0.02 0.03 0.03 0.02 0.03 0.04 0.02 0.01 0.01 0.01 0.01 0.01 0.02 0.01 0.00 0.01 0.01 0.01 0.01 0.01 0.01 0.01 0.01 0.02 0.02 0.02 0.02 0.02 0.02 0.03 0.04 0.06 0.07 0.06 0.05 0.04 0.05 0.04 0.04
0.06 0.07 0.03 0.02 0.01 0.02 0.02 0.02 0.02 0.02 0.01 0.01 0.01 0.01 0.01 0.01 0.02 0.02 0.02 0.01 0.01 0.01 0.01 0.01 0.01 0.02 0.02 0.02 0.02 0.02 0.02 0.02 0.02 0.02 0.03 0.04 0.04 0.04 0.05 0.04 0.04 0.05 0.04 0.04
0.07 0.08 0.04 0.02 0.01 0.01 0.01 0.01 0.01 0.01 0.01 0.01 0.01 0.01 0.01 0.01 0.02 0.02 0.02 0.01 0.01 0.01 0.01 0.01 0.01 0.02 0.02 0.03 0.02 0.02 0.02 0.02 0.02 0.03 0.04 0.04 0.03 0.03 0.04 0.04 0.04 0.05 0.04 0.04
0.07 0.07 0.06 0.03 0.01 0.02 0.03 0.01 0.01 0.01 0.01 0.01 0.01 0.02 0.02 0.02 0.02 0.02 0.02 0.01 0.01 0.01 0.01 0.01 0.01 0.02 0.02 0.02 0.02 0.02 0.02 0.02 0.02 0.02 0.03 0.03 0.03 0.03 0.03 0.04 0.05 0.05 0.05 0.04
0.05 0.05 0.07 0.04 0.02 0.03 0.01 0.00 0.00 0.01 0.01 0.01 0.02 0.02 0.02 0.02 0.02 0.01 0.01 0.00 0.00 0.00 0.00 0.01 0.01 0.01 0.01 0.02 0.02 0.02 0.01 0.01 0.01 0.01 0.02 0.02 0.02 0.02 0.03 0.03 0.04 0.04 0.06 0.07
0.03 0.05 0.08 0.07 0.04 0.02 0.00 0.00 0.00 0.01 0.02 0.02 0.02 0.02 0.02 0.02 0.01 0.01 0.00 0.00 0.00 0.00 0.00 0.01 0.01 0.01 0.01 0.02 0.02 0.02 0.01 0.01 0.01 0.01 0.01 0.01 0.02 0.02 0.02 0.03 0.03 0.04 0.05 0.08
0.02 0.05 0.08 0.08 0.05 0.02 0.01 0.00 0.00 0.01 0.03 0.02 0.02 0.01 0.01 0.01 0.01 0.01 0.01 0.00 0.00 0.00 0.00 0.01 0.01 0.01 0.01 0.01 0.01 0.01 0.01 0.01 0.01 0.01 0.01 0.02 0.02 0.02 0.02 0.02 0.02 0.03 0.04 0.06
0.03 0.06 0.08 0.07 0.06 0.03 0.01 0.00 0.00 0.02 0.03 0.01 0.01 0.01 0.01 0.01 0.01 0.01 0.01 0.01 0.00 0.00 0.01 0.01 0.01 0.01 0.01 0.01 0.02 0.02 0.02 0.01 0.01 0.01 0.01 0.02 0.02 0.02 0.02 0.02 0.02 0.02 0.04 0.06
0.02 0.03 0.03 0.04 0.05 0.03 0.01 0.00 0.01 0.01 0.01 0.00 0.00 0.00 0.01 0.01 0.01 0.01 0.01 0.01 0.01 0.01 0.01 0.01 0.01 0.01 0.01 0.01 0.01 0.01 0.02 0.02 0.02 0.01 0.02 0.02 0.02 0.02 0.01 0.02 0.02 0.02 0.04 0.06
0.01 0.02 0.03 0.03 0.04 0.03 0.01 0.01 0.00 0.00 0.00 0.00 0.00 0.00 0.00 0.01 0.01 0.01 0.01 0.01 0.01 0.01 0.01 0.01 0.02 0.02 0.02 0.01 0.01 0.01 0.01 0.01 0.01 0.02 0.02 0.03 0.03 0.03 0.02 0.02 0.03 0.03 0.05 0.06
0.02 0.01 0.02 0.02 0.02 0.01 0.01 0.01 0.00 0.00 0.00 0.00 0.00 0.00 0.00 0.01 0.01 0.01 0.01 0.01 0.01 0.01 0.01 0.01 0.01 0.02 0.02 0.01 0.01 0.00 0.00 0.00 0.01 0.02 0.03 0.03 0.03 0.04 0.03 0.03 0.03 0.03 0.04 0.05
0.01 0.01 0.02 0.02 0.02 0.01 0.01 0.00 0.00 0.00 0.00 0.00 0.00 0.00 0.00 0.00 0.01 0.01 0.01 0.01 0.01 0.01 0.01 0.01 0.01 0.02 0.02 0.01 0.00 0.00 0.00 0.01 0.01 0.02 0.03 0.03 0.04 0.04 0.03 0.03 0.03 0.03 0.04 0.04
0.00 0.01 0.01 0.01 0.01 0.01 0.01 0.01 0.00 0.00 0.00 0.00 0.00 0.00 0.00 0.00 0.01 0.01 0.01 0.01 0.02 0.02 0.02 0.02 0.02 0.02 0.02 0.01 0.00 0.00 0.00 0.01 0.02 0.03 0.04 0.05 0.05 0.04 0.03 0.03 0.03 0.03 0.03 0.04
MSLP
1011.88 1011.98 1011.98 1011.92 1011.87 1011.86 1011.91 1012.02 1012.14 1012.23 1012.23 1012.10 1011.83 1011.44 1010.99 1010.52 1010.14 1009.89 1009.82 1009.95 1010.25 1010.67 1011.17 1011.67 1012.13 1012.51 1012.81 1013.04 1013.22 1013.40 1013.58 1013.80 1014.04 1014.30 1014.55 1014.78 1014.94 1015.04 1015.05 1015.00 1014.90 1014.77 1014.65 1014.54
1011.78 1011.72 1011.57 1011.42 1011.32 1011.33 1011.46 1011.69 1011.94 1012.14 1012.22 1012.10 1011.79 1011.30 1010.70 1010.08 1009.55 1009.20 1009.09 1009.22 1009.57 1010.08 1010.69 1011.29 1011.82 1012.25 1012.56 1012.78 1012.94 1013.08 1013.24 1013.45 1013.70 1014.00 1014.29 1014.55 1014.75 1014.86 1014.88 1014.82 1014.71 1014.57 1014.44 1014.34
1011.51 1011.28 1011.01 1010.79 1010.70 1010.79 1011.05 1011.44 1011.85 1012.18 1012.32 1012.21 1011.83 1011.20 1010.43 1009.63 1008.93 1008.45 1008.26 1008.37 1008.77 1009.37 1010.08 1010.78 1011.41 1011.90 1012.24 1012.46 1012.61 1012.73 1012.88 1013.09 1013.36 1013.68 1014.00 1014.29 1014.51 1014.63 1014.65 1014.57 1014.44 1014.29 1014.14 1014.04
1011.10 1010.73 1010.38 1010.15 1010.13 1010.35 1010.79 1011.37 1011.96 1012.42 1012.62 1012.49 1012.00 1011.21 1010.23 1009.21 1008.32 1007.69 1007.40 1007.49 1007.91 1008.58 1009.38 1010.19 1010.90 1011.46 1011.84 1012.08 1012.23 1012.35 1012.50 1012.71 1013.00 1013.33 1013.68 1013.98 1014.21 1014.32 1014.32 1014.23 1014.07 1013.90 1013.74 1013.63
1010.58 1010.14 1009.77 1009.60 1009.70 1010.10 1010.75 1011.54 1012.31 1012.88 1013.11 1012.92 1012.31 1011.33 1010.12 1008.87 1007.77 1006.97 1006.58 1006.62 1007.06 1007.78 1008.66 1009.55 1010.34 1010.96 1011.39 1011.66 1011.82 1011.94 1012.09 1012.31 1012.60 1012.95 1013.30 1013.61 1013.83 1013.93 1013.91 1013.80 1013.62 1013.43 1013.26 1013.15
1010.02 1009.56 1009.25 1009.19 1009.47 1010.08 1010.95 1011.94 1012.85 1013.50 1013.73 1013.45 1012.68 1011.50 1010.07 1008.60 1007.30 1006.35 1005.86 1005.85 1006.29 1007.04 1007.98 1008.94 1009.79 1010.46 1010.93 1011.21 1011.38 1011.50 1011.66 1011.87 1012.17 1012.51 1012.86 1013.17 1013.37 1013.46 1013.42 1013.29 1013.10 1012.90 1012.75 1012.65
1009.47 1009.06 1008.84 1008.94 1009.42 1010.24 1011.30 1012.45 1013.46 1014.14 1014.32 1013.94 1013.01 1011.63 1010.00 1008.33 1006.88 1005.81 1005.25 1005.21 1005.64 1006.42 1007.40 1008.40 1009.28 1009.98 1010.46 1010.75 1010.92 1011.04 1011.18 1011.39 1011.68 1012.02 1012.36 1012.65 1012.84 1012.91 1012.87 1012.73 1012.54 1012.36 1012.22 1012.15
1008.96 1008.63 1008.55 1008.81 1009.47 1010.46 1011.67 1012.91 1013.96 1014.61 1014.71 1014.20 1013.12 1011.58 1009.80 1008.01 1006.46 1005.34 1004.74 1004.70 1005.14 1005.94 1006.93 1007.94 1008.83 1009.52 1010.00 1010.27 1010.43 1010.54 1010.67 1010.86 1011.14 1011.46 1011.79 1012.06 1012.24 1012.31 1012.26 1012.13 1011.96 1011.81 1011.71 1011.68
1008.51 1008.27 1008.31 1008.71 1009.49 1010.59 1011.87 1013.13 1014.14 1014.71 1014.71 1014.08 1012.88 1011.24 1009.39 1007.56 1006.00 1004.88 1004.31 1004.30 1004.77 1005.58 1006.57 1007.56 1008.43 1009.10 1009.54 1009.79 1009.91 1010.00 1010.11 1010.29 1010.54 1010.85 1011.16 1011.42 1011.59 1011.66 1011.62 1011.51 1011.37 1011.26 1011.20 1011.22
1008.09 1007.92 1008.04 1008.52 1009.36 1010.48 1011.73 1012.93 1013.84 1014.29 1014.18 1013.45 1012.19 1010.53 1008.70 1006.93 1005.45 1004.42 1003.94 1003.98 1004.49 1005.31 1006.28 1007.24 1008.06 1008.67 1009.06 1009.27 1009.36 1009.42 1009.51 1009.68 1009.92 1010.20 1010.50 1010.75 1010.92 1010.99 1010.96 1010.88 1010.78 1010.71 1010.69 1010.75
1007.70 1007.54 1007.68 1008.16 1008.96 1010.01 1011.15 1012.20 1012.97 1013.29 1013.07 1012.30 1011.04 1009.45 1007.74 1006.13 1004.81 1003.95 1003.59 1003.73 1004.27 1005.09 1006.03 1006.93 1007.67 1008.21 1008.55 1008.71 1008.78 1008.82 1008.90 1009.05 1009.28 1009.56 1009.84 1010.08 1010.24 1010.31 1010.30 1010.24 1010.17 1010.12 1010.14 1010.21
1007.28 1007.09 1007.17 1007.57 1008.26 1009.15 1010.12 1010.98 1011.58 1011.77 1011.49 1010.72 1009.55 1008.12 1006.61 1005.23 1004.15 1003.48 1003.28 1003.52 1004.10 1004.90 1005.78 1006.60 1007.26 1007.73 1008.00 1008.13 1008.18 1008.22 1008.30 1008.46 1008.68 1008.95 1009.21 1009.44 1009.59 1009.66 1009.64 1009.59 1009.53 1009.50 1009.51 1009.59
1006.84 1006.56 1006.52 1006.77 1007.27 1007.96 1008.71 1009.38 1009.82 1009.91 1009.60 1008.90 1007.89 1006.68 1005.44 1004.35 1003.53 1003.09 1003.04 1003.36 1003.96 1004.73 1005.53 1006.25 1006.82 1007.22 1007.45 1007.56 1007.60 1007.66 1007.75 1007.92 1008.15 1008.41 1008.65 1008.85 1008.98 1009.02 1009.00 1008.93 1008.86 1008.82 1008.82 1008.86
1006.40 1005.97 1005.77 1005.83 1006.12 1006.58 1007.11 1007.59 1007.89 1007.92 1007.65 1007.08 1006.27 1005.34 1004.41 1003.61 1003.07 1002.83 1002.92 1003.30 1003.88 1004.58 1005.28 1005.89 1006.38 1006.70 1006.90 1007.01 1007.08 1007.16 1007.29 1007.47 1007.70 1007.94 1008.17 1008.33 1008.42 1008.42 1008.36 1008.27 1008.16 1008.09 1008.05 1008.05
1005.99 1005.40 1005.03 1004.88 1004.95 1005.19 1005.51 1005.83 1006.04 1006.06 1005.87 1005.47 1004.91 1004.26 1003.64 1003.13 1002.83 1002.77 1002.95 1003.34 1003.87 1004.47 1005.05 1005.56 1005.95 1006.22 1006.40 1006.52 1006.62 1006.74 1006.91 1007.11 1007.34 1007.56 1007.74 1007.85 1007.88 1007.83 1007.72 1007.58 1007.44 1007.31 1007.23 1007.18
1005.67 1004.94 1004.39 1004.05 1003.92 1003.97 1004.12 1004.32 1004.47 1004.53 1004.45 1004.24 1003.92 1003.56 1003.21 1002.96 1002.84 1002.90 1003.12 1003.49 1003.93 1004.41 1004.87 1005.26 1005.57 1005.80 1005.97 1006.11 1006.24 1006.40 1006.60 1006.81 1007.02 1007.20 1007.33 1007.37 1007.34 1007.22 1007.06 1006.86 1006.68 1006.51 1006.39 1006.30
1005.53 1004.67 1003.98 1003.48 1003.18 1003.07 1003.10 1003.22 1003.35 1003.46 1003.50 1003.47 1003.37 1003.24 1003.12 1003.06 1003.08 1003.20 1003.42 1003.71 1004.05 1004.40 1004.72 1005.00 1005.24 1005.43 1005.59 1005.75 1005.92 1006.11 1006.31 1006.52 1006.69 1006.82 1006.87 1006.84 1006.73 1006.55 1006.33 1006.10 1005.88 1005.70 1005.55 1005.44
1005.60 1004.67 1003.87 1003.25 1002.83 1002.60 1002.54 1002.60 1002.74 1002.89 1003.04 1003.15 1003.22 1003.27 1003.31 1003.36 1003.45 1003.58 1003.75 1003.95 1004.17 1004.38 1004.59 1004.77 1004.94 1005.09 1005.25 1005.42 1005.61 1005.80 1005.99 1006.16 1006.28 1006.33 1006.31 1006.20 1006.02 1005.79 1005.53 1005.27 1005.04 1004.86 1004.72 1004.62
1005.90 1004.93 1004.07 1003.38 1002.88 1002.57 1002.44 1002.46 1002.59 1002.77 1002.98 1003.19 1003.36 1003.51 1003.64 1003.74 1003.84 1003.93 1004.02 1004.12 1004.22 1004.32 1004.42 1004.52 1004.63 1004.76 1004.91 1005.07 1005.24 1005.42 1005.57 1005.68 1005.73 1005.70 1005.59 1005.41 1005.17 1004.90 1004.63 1004.38 1004.16 1004.00 1003.90 1003.83
1006.38 1005.42 1004.55 1003.83 1003.28 1002.92 1002.73 1002.71 1002.81 1002.99 1003.21 1003.44 1003.65 1003.83 1003.97 1004.06 1004.12 1004.15 1004.16 1004.16 1004.16 1004.16 1004.18 1004.22 1004.29 1004.38 1004.50 1004.64 1004.79 1004.92 1005.00 1005.04 1005.00 1004.89 1004.71 1004.47 1004.19 1003.91 1003.65 1003.42 1003.25 1003.14 1003.09 1003.08
1006.97 1006.05 1005.21 1004.49 1003.92 1003.53 1003.30 1003.23 1003.28 1003.42 1003.60 1003.80 1003.97 1004.11 1004.21 1004.25 1004.24 1004.19 1004.12 1004.04 1003.96 1003.89 1003.85 1003.84 1003.87 1003.94 1004.03 1004.12 1004.22 1004.28 1004.29 1004.24 1004.12 1003.94 1003.70 1003.42 1003.13 1002.86 1002.63 1002.45 1002.34 1002.29 1002.30 1002.35
1007.56 1006.72 1005.94 1005.25 1004.70 1004.29 1004.03 1003.90 1003.89 1003.95 1004.05 1004.16 1004.25 1004.31 1004.31 1004.27 1004.18 1004.05 1003.91 1003.76 1003.62 1003.51 1003.43 1003.39 1003.40 1003.42 1003.47 1003.52 1003.54 1003.53 1003.47 1003.34 1003.15 1002.91 1002.63 1002.34 1002.07 1001.82 1001.64 1001.52 1001.47 1001.49 1001.55 1001.65
1008.06 1007.33 1006.63 1006.01 1005.49 1005.09 1004.81 1004.63 1004.55 1004.51 1004.51 1004.50 1004.47 1004.41 1004.31 1004.16 1003.98 1003.78 1003.58 1003.38 1003.21 1003.07 1002.97 1002.91 1002.89 1002.88 1002.88 1002.86 1002.82 1002.73 1002.60 1002.40 1002.16 1001.89 1001.61 1001.33 1001.09 1000.89 1000.76 1000.70 1000.70 1000.76 1000.86 1000.99
1008.40 1007.80 1007.22 1006.69 1006.23 1005.86 1005.58 1005.37 1005.21 1005.08 1004.96 1004.83 1004.68 1004.49 1004.27 1004.02 1003.76 1003.49 1003.23 1003.00 1002.81 1002.65 1002.54 1002.46 1002.40 1002.35 1002.30 1002.22 1002.11 1001.96 1001.76 1001.53 1001.26 1000.99 1000.72 1000.47 1000.27 1000.13 1000.05 1000.03 1000.07 1000.16 1000.27 1000.40
1008.59 1008.12 1007.66 1007.24 1006.88 1006.56 1006.30 1006.07 1005.87 1005.67 1005.45 1005.21 1004.93 1004.62 1004.29 1003.94 1003.60 1003.27 1002.98 1002.72 1002.50 1002.33 1002.19 1002.09 1001.99 1001.90 1001.79 1001.65 1001.48 1001.28 1001.04 1000.78 1000.52 1000.26 1000.02 999.82 999.67 999.58 999.54 999.55 999.60 999.68 999.78 999.90
1008.65 1008.32 1008.00 1007.70 1007.44 1007.20 1006.99 1006.77 1006.54 1006.29 1006.00 1005.66 1005.29 1004.88 1004.45 1004.03 1003.61 1003.23 1002.90 1002.61 1002.37 1002.17 1002.00 1001.86 1001.72 1001.57 1001.40 1001.20 1000.98 1000.73 1000.47 1000.21 999.95 999.72 999.53 999.38 999.28 999.23 999.21 999.23 999.27 999.33 999.40 999.48
Thickness
5585 5576 5578 5584 5585 5588 5588 5586 5586 5590 5596 5593 5594 5602 5614 5617 5615 5615 5614 5614 5616 5618 5619 5619 5620 5620 5619 5618 5617 5616 5615 5615 5614 5613 5612 5611 5611 5612 5611 5611 5611 5612 5612 5614
5569 5571 5584 5584 5582 5580 5578 5575 5576 5581 5586 5587 5587 5595 5606 5611 5613 5614 5613 5611 5610 5609 5609 5610 5611 5610 5609 5608 5607 5606 5605 5605 5604 5603 5602 5601 5601 5601 5601 5600 5600 5600 5600 5601
5564 5576 5582 5578 5574 5572 5571 5568 5569 5570 5572 5573 5573 5582 5597 5606 5609 5611 5610 5608 5605 5604 5602 5600 5599 5599 5597 5597 5596 5597 5595 5594 5594 5593 5591 5590 5588 5587 5587 5587 5588 5589 5589 5589
5557 5567 5571 5569 5568 5566 5562 5569 5567 5563 5554 5547 5556 5552 5582 5593 5599 5602 5600 5597 5596 5595 5593 5591 5590 5589 5588 5587 5586 5585 5584 5583 5583 5582 5579 5578 5576 5576 5578 5577 5577 5577 5577 5577
5551 5560 5561 5561 5564 5562 5558 5561 5557 5553 5543 5534 5540 5537 5565 5578 5585 5591 5589 5587 5586 5585 5584 5583 5581 5580 5579 5577 5575 5573 5572 5572 5571 5570 5568 5567 5566 5566 5567 5566 5565 5565 5565 5566
5544 5552 5555 5556 5557 5555 5550 5544 5537 5524 5518 5519 5533 5528 5550 5563 5577 5582 5580 5576 5575 5574 5574 5573 5572 5570 5568 5565 5563 5561 5560 5560 5560 5559 5558 5556 5555 5555 5555 5554 5554 5555 5555 5556
5532 5540 5545 5546 5541 5540 5537 5524 5512 5507 5498 5510 5530 5526 5546 5566 5570 5572 5571 5567 5564 5562 5561 5560 5560 5558 5556 5554 5551 5550 5549 5549 5549 5548 5547 5547 5546 5544 5544 5544 5544 5545 5546 5547
5513 5522 5533 5535 5533 5526 5523 5521 5509 5505 5501 5507 5521 5521 5545 5560 5562 5563 5561 5557 5553 5551 5550 5549 5549 5547 5545 5543 5541 5539 5538 5539 5539 5538 5537 5537 5535 5533 5534 5535 5535 5536 5537 5539
5499 5509 5525 5526 5528 5521 5511 5508 5510 5495 5487 5490 5506 5519 5536 5551 5549 5548 5544 5542 5541 5540 5540 5538 5537 5536 5533 5531 5530 5529 5528 5528 5528 5527 5527 5526 5525 5524 5525 5526 5527 5527 5529 5531
5495 5495 5507 5511 5514 5512 5508 5501 5488 5483 5482 5487 5497 5506 5518 5533 5533 5532 5529 5529 5529 5530 5529 5529 5527 5525 5524 5522 5521 5519 5518 5518 5517 5517 5517 5518 5516 5516 5516 5517 5518 5519 5520 5522
5485 5481 5484 5490 5495 5495 5492 5489 5483 5473 5471 5472 5481 5505 5523 5521 5524 5520 5518 5519 5519 5519 5519 5518 5516 5515 5515 5512 5511 5509 5509 5509 5508 5509 5509 5509 5507 5506 5507 5509 5510 5511 5512 5514
5471 5463 5460 5471 5483 5488 5485 5482 5473 5467 5461 5456 5459 5490 5520 5515 5513 5510 5508 5511 5510 5510 5509 5507 5507 5506 5504 5503 5502 5501 5501 5500 5500 5500 5500 5499 5498 5498 5498 5500 5502 5502 5504 5506
5462 5451 5449 5458 5462 5466 5466 5468 5466 5461 5454 5447 5452 5482 5507 5502 5501 5500 5499 5499 5498 5499 5499 5498 5496 5495 5494 5493 5492 5492 5491 5490 5491 5491 5490 5490 5489 5489 5490 5491 5493 5494 5495 5498
5456 5442 5446 5454 5457 5451 5450 5455 5455 5450 5445 5443 5452 5474 5491 5491 5490 5489 5487 5487 5486 5487 5487 5486 5485 5484 5484 5483 5482 5481 5481 5481 5481 5481 5481 5481 5480 5480 5481 5483 5484 5486 5487 5488
5439 5434 5434 5441 5448 5446 5447 5451 5449 5444 5446 5445 5458 5464 5480 5482 5478 5475 5475 5476 5477 5478 5478 5477 5475 5473 5473 5472 5471 5471 5471 5471 5471 5470 5471 5472 5472 5473 5473 5474 5475 5477 5479 5481
5419 5420 5421 5428 5439 5438 5439 5448 5449 5447 5448 5448 5452 5459 5473 5471 5467 5465 5465 5465 5466 5467 5467 5467 5465 5462 5461 5460 5461 5461 5461 5461 5461 5461 5462 5463 5464 5465 5465 5466 5467 5469 5471 5473
5403 5404 5407 5414 5424 5425 5432 5449 5448 5446 5448 5448 5448 5458 5461 5458 5458 5457 5457 5456 5456 5456 5457 5456 5453 5451 5451 5451 5451 5451 5452 5452 5452 5453 5453 5455 5455 5456 5456 5458 5460 5461 5463 5465
5395 5394 5395 5398 5404 5412 5441 5449 5448 5445 5446 5445 5444 5447 5449 5449 5448 5447 5447 5445 5445 5445 5444 5443 5442 5442 5442 5442 5443 5443 5443 5444 5444 5444 5445 5446 5447 5448 5449 5450 5452 5454 5456 5458
5393 5389 5386 5388 5390 5402 5425 5435 5435 5432 5432 5437 5435 5436 5438 5437 5434 5433 5436 5435 5433 5433 5432 5431 5432 5432 5432 5433 5434 5434 5434 5434 5434 5435 5437 5438 5439 5440 5442 5443 5445 5447 5450 5453
5385 5382 5380 5380 5384 5396 5419 5428 5430 5425 5417 5427 5427 5427 5426 5424 5417 5422 5426 5425 5424 5423 5422 5422 5422 5423 5423 5424 5424 5424 5425 5425 5425 5427 5429 5431 5432 5433 5435 5436 5439 5441 5443 5446
5372 5373 5375 5375 5377 5389 5408 5414 5418 5406 5408 5418 5418 5417 5416 5412 5411 5413 5414 5414 5413 5413 5413 5413 5413 5413 5414 5414 5414 5414 5415 5415 5418 5419 5421 5423 5424 5425 5426 5429 5431 5433 5436 5438
5360 5359 5362 5365 5370 5382 5401 5402 5399 5399 5405 5407 5407 5407 5406 5404 5404 5404 5403 5403 5402 5402 5403 5404 5403 5404 5405 5405 5404 5405 5406 5408 5409 5410 5412 5413 5415 5417 5419 5421 5423 5426 5428 5430
5356 5361 5360 5363 5374 5382 5386 5389 5394 5395 5395 5396 5395 5396 5395 5393 5392 5392 5392 5391 5391 5392 5392 5393 5393 5394 5395 5395 5395 5395 5398 5399 5400 5402 5403 5405 5407 5409 5411 5413 5417 5420 5422 5423
5350 5357 5355 5357 5366 5373 5377 5380 5385 5386 5386 5387 5387 5386 5385 5382 5381 5380 5380 5380 5381 5382 5382 5383 5383 5385 5387 5388 5388 5388 5389 5390 5392 5393 5395 5397 5398 5401 5404 5407 5409 5412 5415 5417
5348 5349 5348 5351 5360 5366 5371 5372 5373 5374 5374 5375 5376 5375 5374 5372 5371 5370 5369 5370 5370 5372 5373 5374 5374 5376 5378 5379 5381 5381 5382 5383 5384 5386 5387 5390 5392 5394 5396 5399 5401 5404 5408 5412
5340 5343 5342 5348 5356 5355 5359 5363 5363 5363 5363 5363 5363 5363 5363 5362 5361 5361 5360 5360 5361 5362 5363 5364 5365 5367 5370 5372 5374 5375 5375 5376 5377 5379 5380 5382 5385 5388 5390 5391 5394 5398 5402 5407